Regional Weather Roundup
Issued by NWS

Home | Current Version | Previous Version | Text Only | Print | Product List | Glossary Off
Versions: 1 2 3 4 5 6 7 8 9 10 11 12 13 14 15 16 17 18 19 20 21 22 23 24 25 26 27 28 29 30 31 32 33 34 35 36 37 38 39 40 41 42 43 44 45 46 47 48 49 50

000
ASUS43 KDMX 101207
RWRIA

WEATHER ROUNDUP FOR IOWA
NATIONAL WEATHER SERVICE DES MOINES IA
700 AM CDT THU JUL 10 2014

NOTE: "FAIR" INDICATES FEW OR NO CLOUDS BELOW 12,000 FEET WITH NO
SIGNIFICANT WEATHER AND/OR OBSTRUCTIONS TO VISIBILITY.

* - THESE STATIONS ARE NOT NWS STATIONS...THUS NOT UNDER NWS
QUALITY CONTROL.  THEY ALSO DO NOT REPORT WEATHER SUCH
AS PRECIPITATION OR FOG.

IAZ001>003-012>014-020>022-031>034-043>046-101300-
   NORTHWEST IOWA

CITY           SKY/WX    TMP DP  RH WIND       PRES   REMARKS
CARROLL *      MOSUNNY   59  57  94 CALM      30.06R
CHEROKEE *       N/A     59  59 100 CALM      30.05R FOG
DENISON *      CLEAR     64  61  88 SE8       30.04S
LE MARS *      PTCLDY    63  61  94 S6        30.03S
ORANGE CITY *  CLEAR     63  57  82 SE3       30.04R
SHELDON *      SUNNY     59  57  94 SE5       30.03S FOG
SIOUX CITY       N/A     63  61  93 SE6       30.03R FOG
6HR MIN TEMP:  60; 6HR MAX TEMP:  64; 6HR PCP: TRACE;

SPENCER          N/A     61  58  90 SE3       30.05S FOG
6HR MIN TEMP:  58; 6HR MAX TEMP:  63;

STORM LAKE *   SUNNY     61  61 100 S8        30.07R FOG
$$

IAZ055>058-069>071-079>083-090>094-101300-
   SOUTHWEST IOWA

CITY           SKY/WX    TMP DP  RH WIND       PRES   REMARKS
ATLANTIC *     PTCLDY    64  59  82 S5        30.07R
AUDUBON *      SUNNY     61  57  88 CALM      30.08R FOG
CLARINDA *     CLOUDY    66  61  82 CALM      30.08R
COUNCIL BLFS * MOCLDY    66  64  94 SE10      30.04R
CRESTON *      MOSUNNY   63  59  88 SE7       30.09R
HARLAN  *      CLEAR     61  61 100 CALM      30.10R
LAMONI           N/A     64  58  80 SE8       30.10R
6HR MIN TEMP:  63; 6HR MAX TEMP:  67;

RED OAK *      CLOUDY    66  61  82 S5        30.07
SHENANDOAH *   MOCLDY    66  63  88 SE5       30.06R
$$

IAZ047>049-059>061-072>074-084-101300-
   CENTRAL IOWA

CITY           SKY/WX    TMP DP  RH WIND       PRES   REMARKS
AMES             N/A     60  59  96 CALM      30.08R FOG
6HR MIN TEMP:  58; 6HR MAX TEMP:  64;

ANKENY *       SUNNY     61  59  94 CALM      30.09R
CHARITON *     SUNNY     61  59  94 S7        30.10R
DES MOINES       N/A     65  57  75 S9        30.08R
6HR MIN TEMP:  64; 6HR MAX TEMP:  68;

GRINNELL*        N/A     63  58  84 S5        30.11R
KNOXVILLE *    SUNNY     63  57  82 S6        30.09R
MARSHALLTOWN     N/A     61  58  90 S5        30.09R
6HR MIN TEMP:  58; 6HR MAX TEMP:  65;

PELLA *          N/A     64  58  83 S5        30.11R
PERRY *          N/A     60  58  95 SE5       30.08R FOG
$$

IAZ004>006-015-016-023>025-035-036-101300-
   NORTH CENTRAL IOWA

CITY           SKY/WX    TMP DP  RH WIND       PRES   REMARKS
ALGONA *       SUNNY     63  61  94 S7        30.07R FOG
CLARION *      SUNNY     63  61  94 S5        30.08R
ESTHERVILLE      N/A     59  58  96 S5        30.05R FOG
6HR MIN TEMP:  56; 6HR MAX TEMP:  62;

FORT DODGE *     N/A     61  57  88 CALM      30.08R
MASON CITY       N/A     64  60  87 S7        30.09R
6HR MIN TEMP:  56; 6HR MAX TEMP:  64;

FOREST CITY *  CLOUDY    63  63 100 S5        30.07R
IOWA FALLS *     N/A     61  59  94 SE3       30.10R
$$

IAZ007>011-017>019-026>030-037>042-050>054-066-101300-
   NORTHEAST IOWA

CITY           SKY/WX    TMP DP  RH WIND       PRES   REMARKS
CEDAR RAPIDS     N/A     60  57  89 CALM      30.10R
6HR MIN TEMP:  58; 6HR MAX TEMP:  62;

CHARLES CITY * PTSUNNY   61  59  94 S6        30.10R
CLINTON *        N/A     63  57  82 CALM      30.15R
DECORAH *        N/A    N/A N/A N/A MISG        N/A
DUBUQUE          N/A     62  58  86 SE8       30.12R
6HR MIN TEMP:  59; 6HR MAX TEMP:  63;

MONTICELLO *   PTSUNNY   61  59  94 CALM      30.12R
OELWEIN *      MOSUNNY   61  61 100 SE5       30.11R
WATERLOO       CLOUDY    65  58  78 S3        30.09R
6HR MIN TEMP:  60; 6HR MAX TEMP:  65;

$$

IAZ064-065-067-068-078-101300-
   EAST CENTRAL IOWA

CITY           SKY/WX    TMP DP  RH WIND       PRES   REMARKS
DAVENPORT        N/A     63  58  83 SE6       30.12R
6HR MIN TEMP:  59; 6HR MAX TEMP:  64;

IOWA CITY        N/A     63  60  90 CALM      30.12R
6HR MIN TEMP:  57; 6HR MAX TEMP:  64;

MT. PLEASANT *   N/A     61  59  92 S3        30.12R
MUSCATINE *    SUNNY     59  57  94 CALM      30.12R
QUAD CITIES      N/A     61  57  87 E3        30.11R
6HR MIN TEMP:  57; 6HR MAX TEMP:  65;

$$

IAZ062-063-075>077-085>089-095>099-101300-
   SOUTHEAST IOWA

CITY           SKY/WX    TMP DP  RH WIND       PRES   REMARKS
BURLINGTON       N/A     64  62  93 CALM      30.11R
6HR MIN TEMP:  58; 6HR MAX TEMP:  64;

FAIRFIELD *    SUNNY     63  57  82 S5        30.11R
FORT MADISON * SUNNY     66  63  88 CALM      30.12R
KEOKUK *       SUNNY     63  61  94 CALM      30.11R
OSKALOOSA *      N/A     60  58  94 S3        30.11R
CENTERVILLE *  SUNNY     59  59 100 S5        30.12R
OTTUMWA          N/A     62  58  86 S6        30.10R
6HR MIN TEMP:  59; 6HR MAX TEMP:  62;

WASHINGTON *   SUNNY     61  61 100 S3        30.11R
$$

ABBREVIATIONS USED IN REMARKS
   TC - TEMPERATURES IN CELSIUS
  WCI - WIND CHILL INDEX
   HX - HEAT INDEX
  VSB - VISIBILITY
$$




USA.gov is the U.S. government's official web portal to all federal, state and local government web resources and services.